Location: Boley
(53.1150°N, 8.2269°W)
Time: 23:39:19
(UTC+00:00)

Cosmos 1707 - Pass Details

Date: 15 May 2026
Orbit: 331 x 334 km, 82.5° (Epoch: 11 June)

Event Time Altitude Azimuth Distance (km) Brightness Sun altitude
Exits shadow 23:58:30 13° 255° (WSW) 1,186 4.5 -17.5°
Maximum altitude 00:00:00 18° 292° (WNW) 985 4.5 -17.5°
Drops below altitude 10° 00:02:06 10° 338° (NNW) 1,352 6.0 -17.6°
Sets 00:04:30 0° 359° (N) 2,205 7.6 -17.6°
